This demonstration page uses our WeatherBlox Daily Observations layout. Learn more.

Left ArrowRight Arrow

36.17497, -115.13722

Hourly Observations for August 10, 2016

Temp ( °F °C ) Dew Point ( °F °C ) Humidity (%) Winds ( mph kmh ) Pressure ( in mb ) Visibility ( mi km ) Precip ( " mm )
12:53 am 00:53 Clear 87 30.6 39 3.9 18 18 S 8 13 29.76 1008 10 16.0934 0 0
1:53 am 01:53 Clear 86 30 33 0.6 15 15 S 10 17 29.76 1008 10 16.0934 0 0
2:53 am 02:53 Clear 85 29.4 30 -1.1 14 14 S 10 17 29.77 1008 10 16.0934 0 0
3:53 am 03:53 Clear 85 29.4 35 1.7 17 17 SSW 8 13 29.77 1008 10 16.0934 0 0
4:53 am 04:53 Clear 82 27.8 38 3.3 21 21 SE 6 9 29.79 1009 10 16.0934 0 0
5:53 am 05:53 Clear 79 26.1 36 2.2 21 21 ESE 6 9 29.81 1010 10 16.0934 0 0
6:53 am 06:53 Sunny 83 28.3 43 6.1 24 24 SSW 7 11 29.83 1010 10 16.0934 0 0
7:53 am 07:53 Sunny 85 29.4 54 12.2 35 35 S 13 20 29.85 1011 10 16.0934 0 0
8:53 am 08:53 Sunny 87 30.6 56 13.3 35 35 S 9 15 29.87 1011 10 16.0934 0 0
9:53 am 09:53 Sunny 90 32.2 57 13.9 33 33 S 15 24 29.87 1011 10 16.0934 0 0
10:53 am 10:53 Sunny 92 33.3 52 11.1 26 26 S 21 33 29.85 1011 10 16.0934 0 0
11:53 am 11:53 Sunny 96 35.6 49 9.4 20 20 S 17 28 29.85 1011 10 16.0934 0 0
12:53 pm 12:53 Sunny 98 36.7 42 5.6 15 15 SSW 17 28 29.82 1010 N/A 0 0
1:53 pm 13:53 Sunny 100 37.8 38 3.3 12 12 SW 13 20 29.79 1009 10 16.0934 0 0
2:53 pm 14:53 Sunny 102 38.9 30 -1.1 8 8 SW 23 37 29.76 1008 10 16.0934 0 0
3:53 pm 15:53 Sunny 101 38.3 28 -2.2 8 8 SW 17 28 29.76 1008 10 16.0934 0 0
4:53 pm 16:53 Sunny 101 38.3 26 -3.3 7 7 WSW 14 22 29.74 1007 10 16.0934 0 0
5:53 pm 17:53 Sunny 99 37.2 33 0.6 10 10 W 18 30 29.75 1008 10 16.0934 0 0
6:53 pm 18:53 Sunny 97 36.1 39 3.9 13 13 WSW 12 19 29.75 1008 10 16.0934 0 0
7:53 pm 19:53 Clear 96 35.6 40 4.4 14 14 SW 7 11 29.76 1008 10 16.0934 0 0
8:53 pm 20:53 Clear 92 33.3 42 5.6 18 18 S 6 9 29.78 1009 10 16.0934 0 0
9:53 pm 21:53 Clear 92 33.3 36 2.2 14 14 SW 6 9 29.8 1009 10 16.0934 0 0
10:53 pm 22:53 Clear 91 32.8 37 2.8 15 15 SSW 13 20 29.8 1009 10 16.0934 0 0
11:53 pm 23:53 Clear 88 31.1 29 -1.7 12 12 SSW 9 15 29.82 1010 10 16.0934 0 0

Powered by AerisWeather